Showing default

COSMOS 2535, 44421

Orbit data source: Space-Track

COSMOS 2535, 44421 is a payload satellite owned by TS VS RF (CIS) in SSO that was launched on Wed, 10 Jul 2019 UTC via a SOYUZ-2-1V launch vehicle from the Plesetsk Missile And Space Complex (PKMTR). Payload-class satellites include a variety of spacecraft equipped with specific instruments for various scientific and technological missions. These include communications satellites like Starlink; space stations such as the ISS; scientific satellites like the Hubble; Earth observation satellites from companies like Planet Labs, Umbra, and HawkEye 360; GPS; miniature CubeSats for education and research; and military/defense satellites.

Loading next visibility...
Identifier
44421, 2019-039A
Orbit
SSO
Country
Flag of CISCIS
Related business
Manufacturer
Lavochkin
Mission
Non-operational Defense Technology
Bus & Motor
KARAT-200, Unknown motor
Mass
547 kg wet, ~400 kg dry
Launch date (UTC)
2019-07-10 (6 years ago)
Launch vehicle
SOYUZ-2-1V
Launch site
Plesetsk Missile And Space Complex (PKMTR)
Object type
Payload
Rocket body
Debris
Shape & HBR
Cyl + 2 Pan, 1.5 m
Radar Cross Section
3.727 m², Large (>1 m²)

Expand to show TLE details & history
Last TLE update: 14 hours ago

TLE from 14 hours ago
0 COSMOS 2535
1 44421U 19039A   25305.59876074  .00001391  00000-0  14535-3 0  9993
2 44421  97.6051 337.2312 0007020 247.1411 112.9067 14.91201642342718
Epoch: 2025-11-01T14:22Z
TLE epoch observation values (Epoch: 2025-11-01T14:22:12.927Z)
Latitude
-0.00005°
Longitude
80.55081°
Altitude
599.141 km
Speed
7.559 km/s
True Right ascension
22h 28m 55s
True Declination
0° 00' 00"
Sunlit
Object was in full shadow at epoch
Visualization orbit readout
Latitude
Unknown
Longitude
Unknown
Altitude
Unknown
Speed
Unknown
Apparent Right ascension
Unknown
Apparent Declination
Unknown
Sunlit
N/A
Visualization observer readout
Local Sidereal Time
00:19:55
Azimuth
Unknown
Elevation
Unknown
Doppler factor
Unknown
Orbital elements
Apogee altitude
596.093 km
Perigee altitude
586.308 km
Semi-major axis
6,969.337 km
Eccentricity
0.0007
Inclination
97.6051°
RAAN
337.2312°
Arg. of periapsis
247.1411°
True anomaly
112.98077°
Mean anomaly
112.9067°
Eccentric anomaly
112.94374°
Mean motion
3.7304 °/min
Orbital period
96.5 mins
BSTAR
0.00014535
Loading maneuver chart data...
Computing Atmospheric mass density...

Documentation

Showing up to 5 results
|